Location: St. Louis
(38.6270°N, 90.1994°W)
Time: 01:39:02
(UTC-06:00)

Transit 4A - Pass Details

Date: 04 December 2021
Orbit: 863 x 981 km, 66.8° (Epoch: 24 January)

Event Time Altitude Azimuth Distance (km) Brightness Sun altitude
Rises 19:12:15 0° 216° (SW) 3,440 11.4 -29.2°
Reaches altitude 10° 19:14:43 10° 220° (SW) 2,515 10.7 -29.6°
Maximum altitude 19:20:28 63° 301° (WNW) 985 8.1 -30.8°
Enters shadow 19:20:47 62° 318° (NW) 994 8.0 -30.8°
Drops below altitude 10° 19:26:25 10° 22° (NNE) 2,595 - -31.9°
Sets 19:29:01 0° 26° (NNE) 3,558 - -32.4°
